• In Belgium
  • List of Countries
  • For 7 days
  • Water Temperature
  • Satellite Maps
  • Weather Map
  • Weather Widgets
  • user-avatar
    Login

    Hourly Weather Lahaur

    Today, 20 September, Thursday

    Time Temperature Precipitation Wind Pressure Humidity
    00:00 +30°C° 0 mm 2 mps 735 mmHg 34%
    01:00 +29°C° 0 mm 2 mps 735 mmHg 37%
    02:00 +29°C° 0 mm 2 mps 735 mmHg 39%
    03:00 +28°C° 0 mm 2 mps 735 mmHg 40%
    04:00 +28°C° 0 mm 2 mps 735 mmHg 42%
    05:00 +27°C° 0 mm 1 mps 735 mmHg 39%
    06:00 +29°C° 0 mm 1 mps 735 mmHg 37%
    07:00 +30°C° 0 mm 1 mps 736 mmHg 34%
    08:00 +32°C° 0 mm 1 mps 736 mmHg 32%
    09:00 +35°C° 0 mm 1 mps 736 mmHg 28%
    10:00 +37°C° 0 mm 1 mps 736 mmHg 24%
    11:00 +41°C° 0 mm 1 mps 737 mmHg 19%
    12:00 +41°C° 0 mm 1 mps 736 mmHg 17%
    13:00 +42°C° 0 mm 1 mps 736 mmHg 16%
    14:00 +43°C° 0 mm 1 mps 735 mmHg 14%
    15:00 +42°C° 0 mm 1 mps 735 mmHg 15%
    16:00 +42°C° 0 mm 1 mps 735 mmHg 16%
    17:00 +41°C° 0 mm 1 mps 735 mmHg 17%
    18:00 +39°C° 0 mm 2 mps 735 mmHg 20%
    19:00 +36°C° 0 mm 2 mps 735 mmHg 23%
    20:00 +34°C° 0 mm 3 mps 736 mmHg 26%
    21:00 +33°C° 0 mm 3 mps 736 mmHg 30%
    22:00 +31°C° 0 mm 3 mps 736 mmHg 34%
    23:00 +30°C° 0 mm 3 mps 736 mmHg 38%

    Tomorrow, 21 September, Friday

    Time Temperature Precipitation Wind Pressure Humidity
    00:00 +30°C° 0 mm 2 mps 736 mmHg 40%
    01:00 +29°C° 0 mm 2 mps 736 mmHg 43%
    02:00 +28°C° 0 mm 2 mps 736 mmHg 46%
    03:00 +28°C° 0 mm 2 mps 736 mmHg 48%
    04:00 +27°C° 0 mm 2 mps 736 mmHg 49%
    05:00 +27°C° 0 mm 1 mps 736 mmHg 51%
    06:00 +28°C° 0 mm 2 mps 737 mmHg 49%
    07:00 +30°C° 0 mm 2 mps 737 mmHg 48%
    08:00 +31°C° 0 mm 2 mps 737 mmHg 46%
    09:00 +34°C° 0 mm 2 mps 738 mmHg 41%
    10:00 +37°C° 0 mm 2 mps 738 mmHg 36%
    11:00 +39°C° 0 mm 2 mps 738 mmHg 31%
    12:00 +40°C° 0 mm 2 mps 737 mmHg 27%
    13:00 +41°C° 0 mm 2 mps 737 mmHg 24%
    14:00 +42°C° 0 mm 2 mps 737 mmHg 20%
    15:00 +41°C° 0 mm 2 mps 736 mmHg 21%
    16:00 +41°C° 0 mm 2 mps 736 mmHg 23%
    17:00 +40°C° 0 mm 3 mps 736 mmHg 24%
    18:00 +38°C° 0 mm 3 mps 736 mmHg 30%
    19:00 +36°C° 0 mm 3 mps 737 mmHg 37%
    20:00 +34°C° 0 mm 3 mps 737 mmHg 43%
    21:00 +33°C° 0 mm 3 mps 737 mmHg 49%
    22:00 +33°C° 0 mm 3 mps 738 mmHg 55%
    23:00 +31°C° 0 mm 3 mps 738 mmHg 61%

    Day after tomorrow, 22 September, Saturday

    Time Temperature Precipitation Wind Pressure Humidity
    00:00 +30°C° 0 mm 3 mps 738 mmHg 65%
    01:00 +30°C° 0 mm 3 mps 738 mmHg 68%
    02:00 +29°C° 0 mm 3 mps 738 mmHg 72%
    03:00 +29°C° 0 mm 3 mps 738 mmHg 75%
    04:00 +28°C° 0 mm 2 mps 738 mmHg 77%
    05:00 +28°C° 0 mm 2 mps 738 mmHg 80%
    06:00 +29°C° 0 mm 2 mps 738 mmHg 75%
    07:00 +30°C° 0 mm 2 mps 739 mmHg 69%
    08:00 +31°C° 0 mm 2 mps 739 mmHg 64%
    09:00 +34°C° 0 mm 2 mps 739 mmHg 57%
    10:00 +36°C° 0 mm 2 mps 739 mmHg 49%
    11:00 +37°C° 0 mm 2 mps 739 mmHg 41%
    12:00 +38°C° 0 mm 2 mps 739 mmHg 38%
    13:00 +39°C° 0 mm 2 mps 738 mmHg 34%
    14:00 +40°C° 0 mm 3 mps 738 mmHg 31%
    15:00 +37°C° 0 mm 4 mps 738 mmHg 38%
    16:00 +35°C° 0 mm 5 mps 738 mmHg 45%
    17:00 +33°C° 0 mm 7 mps 737 mmHg 52%
    18:00 +32°C° 0 mm 6 mps 738 mmHg 54%
    19:00 +30°C° 0 mm 5 mps 738 mmHg 56%
    20:00 +28°C° 0 mm 4 mps 739 mmHg 57%
    21:00 +28°C° 0 mm 3 mps 739 mmHg 58%
    22:00 +27°C° 0 mm 3 mps 739 mmHg 59%
    23:00 +27°C° 0 mm 3 mps 740 mmHg 59%

    23 September, Sunday

    Time Temperature Precipitation Wind Pressure Humidity
    00:00 +26°C° 0 mm 3 mps 740 mmHg 62%
    01:00 +26°C° 0 mm 2 mps 740 mmHg 64%
    02:00 +26°C° 0 mm 2 mps 740 mmHg 67%
    03:00 +26°C° 0 mm 2 mps 740 mmHg 68%
    04:00 +26°C° 0 mm 2 mps 740 mmHg 69%
    05:00 +26°C° 0 mm 2 mps 740 mmHg 70%
    06:00 +27°C° 0.1 mm 2 mps 740 mmHg 67%
    07:00 +28°C° 0.1 mm 2 mps 740 mmHg 63%
    08:00 +29°C° 0.1 mm 3 mps 741 mmHg 60%
    09:00 +30°C° 0 mm 3 mps 741 mmHg 59%
    10:00 +30°C° 0 mm 3 mps 741 mmHg 57%
    11:00 +32°C° 0 mm 4 mps 741 mmHg 56%
    12:00 +32°C° 0 mm 4 mps 740 mmHg 56%
    13:00 +32°C° 0 mm 4 mps 740 mmHg 56%
    14:00 +32°C° 0 mm 4 mps 739 mmHg 57%
    15:00 +30°C° 0 mm 4 mps 739 mmHg 57%
    16:00 +30°C° 0 mm 4 mps 738 mmHg 57%
    17:00 +30°C° 0 mm 4 mps 738 mmHg 57%
    18:00 +29°C° 0 mm 3 mps 738 mmHg 59%
    19:00 +28°C° 0 mm 3 mps 738 mmHg 62%
    20:00 +27°C° 0 mm 2 mps 738 mmHg 65%
    21:00 +27°C° 0 mm 2 mps 738 mmHg 65%
    22:00 +27°C° 0 mm 2 mps 739 mmHg 65%
    23:00 +26°C° 0 mm 2 mps 739 mmHg 65%

    24 September, Monday

    Time Temperature Precipitation Wind Pressure Humidity
    00:00 +26°C° 0 mm 2 mps 738 mmHg 65%
    01:00 +26°C° 0 mm 2 mps 738 mmHg 65%
    02:00 +26°C° 0 mm 2 mps 738 mmHg 65%
    03:00 +26°C° 0 mm 2 mps 738 mmHg 65%
    04:00 +26°C° 0 mm 2 mps 737 mmHg 65%
    05:00 +26°C° 0 mm 2 mps 737 mmHg 66%
    06:00 +27°C° 0 mm 2 mps 738 mmHg 62%
    07:00 +28°C° 0 mm 2 mps 738 mmHg 58%
    08:00 +29°C° 0 mm 2 mps 738 mmHg 54%
    09:00 +31°C° 0 mm 2 mps 739 mmHg 49%
    10:00 +34°C° 0 mm 3 mps 739 mmHg 45%
    11:00 +35°C° 0 mm 3 mps 739 mmHg 40%
    12:00 +36°C° 0 mm 3 mps 738 mmHg 40%
    13:00 +36°C° 0 mm 3 mps 737 mmHg 39%
    14:00 +36°C° 0 mm 3 mps 737 mmHg 39%
    15:00 +36°C° 0 mm 3 mps 736 mmHg 40%
    16:00 +35°C° 0 mm 3 mps 736 mmHg 41%
    17:00 +35°C° 0 mm 3 mps 736 mmHg 42%
    18:00 +33°C° 0 mm 3 mps 736 mmHg 47%
    19:00 +30°C° 0 mm 3 mps 736 mmHg 51%
    20:00 +29°C° 0 mm 3 mps 737 mmHg 56%
    21:00 +28°C° 0 mm 3 mps 737 mmHg 59%
    22:00 +27°C° 0 mm 2 mps 737 mmHg 61%
    23:00 +27°C° 0 mm 2 mps 737 mmHg 64%

    25 September, Tuesday

    Time Temperature Precipitation Wind Pressure Humidity
    00:00 +26°C° 0 mm 2 mps 737 mmHg 65%
    01:00 +26°C° 0 mm 2 mps 736 mmHg 67%
    02:00 +25°C° 0 mm 1 mps 736 mmHg 68%
    03:00 +25°C° 0 mm 1 mps 736 mmHg 68%
    04:00 +25°C° 0 mm 1 mps 736 mmHg 69%
    05:00 +25°C° 0 mm 1 mps 736 mmHg 69%
    06:00 +26°C° 0 mm 1 mps 737 mmHg 64%
    07:00 +28°C° 0 mm 1 mps 737 mmHg 59%
    08:00 +29°C° 0 mm 1 mps 738 mmHg 55%
    09:00 +31°C° 0 mm 1 mps 738 mmHg 49%
    10:00 +34°C° 0 mm 1 mps 738 mmHg 42%
    11:00 +36°C° 0 mm 1 mps 738 mmHg 36%
    12:00 +38°C° 0 mm 2 mps 737 mmHg 33%
    13:00 +39°C° 0 mm 2 mps 736 mmHg 30%
    14:00 +39°C° 0 mm 2 mps 735 mmHg 27%
    15:00 +39°C° 0 mm 2 mps 735 mmHg 27%
    16:00 +39°C° 0 mm 2 mps 735 mmHg 26%
    17:00 +39°C° 0 mm 1 mps 734 mmHg 26%
    18:00 +36°C° 0 mm 1 mps 735 mmHg 29%
    19:00 +34°C° 0 mm 1 mps 735 mmHg 33%
    20:00 +32°C° 0 mm 1 mps 735 mmHg 36%
    21:00 +31°C° 0 mm 1 mps 735 mmHg 39%
    22:00 +30°C° 0 mm 1 mps 735 mmHg 43%
    23:00 +30°C° 0 mm 1 mps 735 mmHg 46%
    Show more